[[{"header":{"parameterUnit":"m.s-1","parameterCategory":2,"la1":30.2991,"la2":30.254,"lo1":-89.0895,"lo2":-89.0444,"dy":0.0017,"dx":0.0017,"nx":28,"ny":28,"refTime":"2025-04-12T21:00:00:Z","depth":"0","parameterNumber":2,"parameterNumberName":"U-component_of_CURRENTS"},"data":[0,0,0,0,0,0,0,0,0,0,0,0,0,0,0,0,0,0,0,0,0,0,0,0,0,0,0,0,0,0,0,0,0,0,0,0,0,0,0,0,0,0,0,0,0,0,0,0,0,0,0,0,0,0,0,0,0,0,-0.2829,-0.283,0,-0.2965,-0.2967,-0.2969,-0.2955,-0.2952,-0.2949,-0.2947,-0.2977,-0.298,-0.2983,0,0,0,0,0,0,0,0,0,0,0,0,0,-0.2708,-0.271,-0.2829,-0.283,-0.2831,-0.2964,-0.2967,-0.2969,-0.2955,-0.2952,-0.2949,-0.2945,-0.2976,-0.2979,-0.2983,0,0,0,0,0,0,0,0,0,0,0,0,0,-0.28,-0.2711,-0.2829,-0.2835,-0.2837,-0.2964,-0.2967,-0.297,-0.2956,-0.2952,-0.2948,-0.2944,-0.2974,-0.2979,-0.2984,-0.3096,0,0,-0.2999,-0.3001,0,0,0,0,0,0,0,0,-0.2794,-0.2805,-0.2833,-0.2835,-0.2837,-0.2933,-0.2935,-0.3005,-0.2957,-0.2917,-0.2947,-0.2942,-0.2951,-0.2958,-0.3003,-0.3098,-0.3099,-0.3,-0.3003,-0.3005,-0.3006,0,0,0,0,0,0,0,-0.2788,-0.28,-0.2889,-0.2835,-0.2837,-0.2883,-0.2891,-0.295,-0.2958,-0.292,-0.2918,-0.2925,-0.2952,-0.2998,-0.3003,-0.3099,-0.3,-0.3004,-0.3007,-0.3009,-0.3213,-0.3215,0,0,0,0,0,0,-0.2756,-0.2793,-0.2884,-0.2892,-0.2798,-0.2887,-0.2897,-0.2911,-0.296,-0.2962,-0.2928,-0.2923,-0.2992,-0.2997,-0.3004,-0.3055,-0.3005,-0.301,-0.3012,-0.3211,-0.3214,-0.3216,0,0,0,0,0,0,-0.2753,-0.2763,-0.2879,-0.284,-0.2857,-0.2892,-0.291,-0.2916,-0.2936,-0.2966,-0.2966,-0.2936,-0.2989,-0.2997,-0.3058,-0.3058,-0.3012,-0.3016,-0.3208,-0.3212,-0.3215,-0.3211,0,0,0,0,0,0,-0.2749,-0.2762,-0.2768,-0.2838,-0.2858,-0.2944,-0.2914,-0.2922,-0.2945,-0.294,-0.2975,-0.2975,-0.2986,-0.3051,-0.3063,-0.3064,-0.302,-0.3205,-0.3209,-0.3214,-0.3208,-0.3214,-0.3219,0,0,0,0,0,-0.2745,-0.2764,-0.2767,-0.2778,-0.2863,-0.2945,-0.2962,-0.2977,-0.2949,-0.2976,-0.3003,-0.2972,-0.3087,-0.3059,-0.3072,-0.3074,-0.3203,-0.3208,-0.3213,-0.3205,-0.3213,-0.3219,0,0,0,0,0,0,-0.2715,-0.2767,-0.2771,-0.2804,-0.2863,-0.2939,-0.2961,-0.2977,-0.3028,-0.3007,-0.3025,-0.3031,-0.3082,-0.3099,-0.3067,-0.315,-0.3133,-0.3141,-0.3122,-0.3129,-0.3134,-0.3081,-0.3024,0,0,0,0,0,-0.2713,-0.2734,-0.2801,-0.2826,-0.2851,-0.2908,-0.294,-0.2956,-0.3006,-0.3022,-0.3059,-0.309,-0.3129,-0.314,-0.3192,-0.3251,-0.3197,-0.3258,-0.3264,-0.3268,-0.3238,-0.3147,-0.3138,-0.3234,-0.3234,-0.3234,0,0,-0.2705,-0.2737,-0.2747,-0.282,-0.2862,-0.291,-0.2918,-0.2965,-0.2999,-0.302,-0.3083,-0.3122,-0.3155,-0.3215,-0.3236,-0.3217,-0.3226,-0.3275,-0.3277,-0.3244,-0.3151,-0.314,-0.3131,-0.3238,-0.3237,-0.3237,0,0,-0.2705,-0.2732,-0.2751,-0.2801,-0.286,-0.2906,-0.2913,-0.3,-0.3025,-0.3113,-0.3118,-0.3157,-0.3248,-0.3258,-0.3272,-0.3346,-0.3266,-0.3362,-0.3332,-0.3245,-0.3234,-0.3223,-0.3177,-0.3162,-0.3351,-0.3351,-0.3352,0,-0.269,-0.2716,-0.2773,-0.281,-0.2824,-0.2896,-0.2914,-0.2988,-0.3086,-0.3082,-0.3123,-0.3197,-0.3261,-0.3252,-0.3305,-0.335,-0.329,-0.3295,-0.3242,-0.3231,-0.3219,-0.3175,-0.3158,-0.3352,-0.3352,-0.3352,-0.3352,0,-0.271,-0.2726,-0.2743,-0.2798,-0.284,-0.2871,-0.2954,-0.3,-0.3041,-0.3086,-0.3113,-0.3209,-0.3218,-0.3273,-0.3331,-0.3286,-0.3269,-0.3261,-0.3204,-0.3208,-0.3164,-0.3146,-0.3353,-0.3352,-0.3352,-0.3352,0,0,-0.2669,-0.2736,-0.2737,-0.2736,-0.2818,-0.2852,-0.29,-0.2939,-0.2933,-0.3036,-0.3007,-0.3134,-0.3143,-0.3163,-0.3215,-0.3189,-0.3137,-0.3202,-0.3198,-0.3119,-0.2946,-0.2911,-0.2889,-0.3088,-0.3084,-0.3081,-0.2957,0,-0.265,-0.268,-0.2722,-0.2737,-0.2747,-0.2797,-0.2839,-0.2882,-0.2931,-0.2953,-0.299,-0.3023,-0.311,-0.3121,-0.31,-0.3143,-0.3084,-0.3172,-0.2986,-0.2981,-0.2915,-0.2864,-0.2734,-0.2607,-0.294,-0.2937,-0.2935,0,-0.2634,-0.2652,-0.2653,-0.2664,-0.2672,-0.2702,-0.27,-0.275,-0.2786,-0.2816,-0.28,-0.2851,-0.2867,-0.2939,-0.2895,-0.2935,-0.2929,-0.2947,-0.2941,-0.2882,-0.2911,-0.2655,-0.2562,-0.255,-0.2907,-0.2909,-0.2911,0,-0.2546,-0.2583,-0.2564,-0.2578,-0.2636,-0.262,-0.2644,-0.2683,-0.2703,-0.2709,-0.271,-0.2696,-0.272,-0.2678,-0.2781,-0.2805,-0.2719,-0.2741,-0.2673,-0.2673,-0.2512,-0.2502,-0.234,-0.2626,-0.2626,-0.2627,-0.2627,0,-0.2487,-0.2469,-0.2523,-0.2521,-0.2493,-0.255,-0.2527,-0.255,-0.2577,-0.258,-0.2625,-0.2622,-0.2652,-0.2645,-0.2687,-0.2637,-0.2615,-0.2633,-0.2612,-0.2519,-0.2512,-0.2456,-0.2496,-0.2622,-0.2623,-0.2624,-0.2625,0,-0.2387,-0.2427,-0.2409,-0.2448,-0.2454,-0.2434,-0.2467,-0.2459,-0.2498,-0.2493,-0.2491,-0.2542,-0.2527,-0.2552,-0.2527,-0.2522,-0.2434,-0.2462,-0.2386,-0.2357,-0.2267,-0.2315,-0.2124,-0.207,-0.232,-0.2318,-0.2316,0,-0.2331,-0.2317,-0.2343,-0.2336,-0.235,-0.2345,-0.2346,-0.2399,-0.2406,-0.2457,-0.2446,-0.2443,-0.2423,-0.2372,-0.2351,-0.2296,-0.2335,-0.2156,-0.2176,-0.2205,-0.2242,-0.2287,-0.226,-0.1982,-0.1978,-0.1975,-0.1972,0,-0.2221,-0.2236,-0.2232,-0.2224,-0.2219,-0.2214,-0.2228,-0.2227,-0.2297,-0.2302,-0.2312,-0.2292,-0.2254,-0.2147,-0.2095,-0.2069,-0.2088,-0.2081,-0.2085,-0.1927,-0.1981,-0.1939,-0.2179,-0.194,-0.1944,-0.1946,-0.1948,-0.1949,-0.2126,-0.2098,-0.2103,-0.2079,-0.2081,-0.2064,-0.202,-0.207,-0.206,-0.2056,-0.2136,-0.2069,-0.2007,-0.1903,-0.1875,-0.1766,-0.1857,-0.1718,-0.1765,-0.1804,-0.1756,-0.1959,-0.1724,-0.1725,-0.1727,-0.1728,-0.1729,0,-0.1991,-0.1977,-0.1958,-0.1924,-0.1876,-0.1924,-0.192,-0.1875,-0.1834,-0.1874,-0.1857,-0.1777,-0.1652,-0.1627,-0.1531,-0.1468,-0.1449,-0.1459,-0.1469,-0.145,-0.1568,-0.1559,-0.1306,-0.1306,-0.1306,-0.1306,-0.1306,-0.1306,-0.1918,-0.185,-0.1843,-0.1719,-0.17,-0.1596,-0.1566,-0.1544,-0.1547,-0.1487,-0.1462,-0.1472,-0.1443,-0.1507,-0.1398,-0.1333,-0.133,-0.1278,-0.1354,-0.1441,-0.1469,-0.1496,-0.1494,-0.1231,-0.1231,-0.1149,-0.1149,-0.1149]},{"header":{"parameterUnit":"m.s-1","parameterCategory":2,"la1":30.2991,"la2":30.254,"lo1":-89.0895,"lo2":-89.0444,"dy":0.0017,"dx":0.0017,"nx":28,"ny":28,"refTime":"2025-04-12T21:00:00:Z","depth":"0","parameterNumber":3,"parameterNumberName":"V-component_of_CURRENTS"},"data":[0,0,0,0,0,0,0,0,0,0,0,0,0,0,0,0,0,0,0,0,0,0,0,0,0,0,0,0,0,0,0,0,0,0,0,0,0,0,0,0,0,0,0,0,0,0,0,0,0,0,0,0,0,0,0,0,0,0,-0.0329,-0.0328,0,-0.0213,-0.0212,-0.021,-0.0132,-0.0131,-0.0131,-0.0131,0.0153,0.0161,0.0168,0,0,0,0,0,0,0,0,0,0,0,0,0,-0.0345,-0.0346,-0.0329,-0.0328,-0.0327,-0.0214,-0.0211,-0.0209,-0.0132,-0.0131,-0.0131,-0.0131,0.0151,0.016,0.0169,0,0,0,0,0,0,0,0,0,0,0,0,0,-0.029,-0.0346,-0.0329,-0.0279,-0.0274,-0.0214,-0.0211,-0.0209,-0.0132,-0.0131,-0.0131,-0.0131,0.0148,0.0159,0.017,0.0239,0,0,0.0205,0.021,0,0,0,0,0,0,0,0,-0.0293,-0.0289,-0.0287,-0.0283,-0.0277,-0.0192,-0.0113,-0.0052,-0.0132,-0.0179,-0.0131,-0.0131,0.005,0.0069,0.0097,0.0253,0.0265,0.0206,0.0213,0.0217,0.0221,0,0,0,0,0,0,0,-0.0297,-0.0292,-0.0277,-0.0287,-0.028,-0.0216,-0.0208,-0.0101,-0.0059,-0.0175,-0.0171,-0.0167,0.0055,0.0085,0.0104,0.0269,0.0205,0.0215,0.0222,0.0227,0.05,0.05,0,0,0,0,0,0,-0.0331,-0.0297,-0.0281,-0.0275,-0.0291,-0.0216,-0.0208,-0.0214,-0.0063,-0.0044,-0.0167,-0.0164,0.0066,0.0091,0.0115,0.0195,0.0217,0.0228,0.0235,0.0499,0.05,0.05,0,0,0,0,0,0,-0.0332,-0.0331,-0.0286,-0.0287,-0.0277,-0.0218,-0.0225,-0.0212,-0.019,-0.006,-0.0036,-0.016,0.0067,0.0099,0.0207,0.0208,0.0233,0.0243,0.0499,0.0499,0.05,0.0365,0,0,0,0,0,0,-0.0333,-0.0332,-0.0342,-0.029,-0.0279,-0.027,-0.0225,-0.021,-0.019,-0.0184,-0.0045,-0.0018,0.007,0.0189,0.0218,0.0224,0.0252,0.0498,0.0499,0.05,0.0368,0.0361,0.0354,0,0,0,0,0,-0.0334,-0.0361,-0.0343,-0.0341,-0.0297,-0.0272,-0.026,-0.0212,-0.019,-0.0189,-0.0086,-0.0023,0.0214,0.0199,0.0233,0.0242,0.0498,0.0499,0.05,0.0372,0.0362,0.0354,0,0,0,0,0,0,-0.0373,-0.0355,-0.0334,-0.0354,-0.0322,-0.0261,-0.0256,-0.0223,-0.0143,-0.0132,-0.0007,0.0028,0.0119,0.0203,0.0182,0.0323,0.0363,0.0371,0.0254,0.0247,0.0239,0.0204,0.0262,0,0,0,0,0,-0.0388,-0.0402,-0.0367,-0.0379,-0.0372,-0.0313,-0.0295,-0.0267,-0.0197,-0.0164,-0.0065,0.0048,0.0152,0.0213,0.0313,0.04,0.0447,0.0426,0.0418,0.0411,0.0407,0.0459,0.0454,0.0504,0.0504,0.0504,0,0,-0.0404,-0.0397,-0.0403,-0.0388,-0.0356,-0.0351,-0.0302,-0.0291,-0.0272,-0.014,-0.0073,0.0027,0.0168,0.0256,0.0304,0.0326,0.0422,0.0413,0.0405,0.0405,0.0459,0.0454,0.0449,0.0504,0.0504,0.0504,0,0,-0.0452,-0.0441,-0.0469,-0.0452,-0.0428,-0.0388,-0.0394,-0.0339,-0.0301,-0.0228,-0.013,-0.0033,0.0124,0.0219,0.0291,0.0308,0.0376,0.0338,0.0282,0.0331,0.0327,0.0323,0.0362,0.0363,0.0338,0.0338,0.0338,0,-0.0471,-0.0498,-0.047,-0.0489,-0.0476,-0.0414,-0.0428,-0.0381,-0.0294,-0.0256,-0.0225,-0.0006,0.0107,0.0224,0.0228,0.0291,0.032,0.0298,0.0317,0.0315,0.0314,0.0355,0.0357,0.0331,0.0332,0.0333,0.0333,0,-0.0536,-0.0549,-0.0564,-0.0562,-0.0546,-0.0548,-0.0492,-0.0459,-0.0402,-0.0344,-0.0235,-0.0088,0.004,0.0089,0.0172,0.023,0.0252,0.0291,0.0325,0.03,0.0346,0.0351,0.0322,0.0325,0.0326,0.0328,0,0,-0.0593,-0.0607,-0.061,-0.0613,-0.0584,-0.0576,-0.0548,-0.0495,-0.0469,-0.0376,-0.0326,-0.0153,-0.0088,-0.0003,0.0107,0.0159,0.0179,0.0209,0.0215,0.0222,0.0268,0.0326,0.0338,0.0206,0.0207,0.0207,0.0297,0,-0.0642,-0.0693,-0.0681,-0.07,-0.0712,-0.0652,-0.0628,-0.0572,-0.05,-0.0437,-0.0302,-0.0206,-0.0119,-0.0057,0.0004,0.0149,0.0189,0.0151,0.0316,0.0321,0.0354,0.0345,0.0373,0.0458,0.0303,0.0304,0.0304,0,-0.0704,-0.0726,-0.0767,-0.0758,-0.0757,-0.0756,-0.0699,-0.0671,-0.0573,-0.0517,-0.0421,-0.0318,-0.0194,-0.0134,0.0056,0.002,0.0124,0.0219,0.0226,0.0331,0.0389,0.0467,0.0475,0.0603,0.0314,0.0313,0.0312,0,-0.0749,-0.0777,-0.0807,-0.0808,-0.0794,-0.079,-0.0769,-0.0695,-0.0665,-0.057,-0.0534,-0.039,-0.0298,-0.0167,0.0045,0.0039,0.0235,0.0258,0.0403,0.0408,0.0495,0.0507,0.0628,0.036,0.0359,0.0359,0.0359,0,-0.08,-0.0822,-0.0833,-0.0851,-0.0873,-0.0843,-0.0842,-0.0798,-0.0736,-0.0701,-0.0581,-0.0505,-0.0306,-0.0157,0.0004,0.023,0.0207,0.0391,0.0437,0.0449,0.0456,0.0624,0.0668,0.0363,0.0362,0.0361,0.0361,0,-0.0845,-0.0855,-0.0891,-0.0897,-0.0901,-0.0916,-0.0905,-0.0899,-0.0832,-0.0785,-0.0759,-0.0589,-0.0385,-0.0178,0.0066,0.0199,0.0485,0.048,0.0478,0.0522,0.0759,0.0793,0.0966,0.1041,0.0632,0.0634,0.0636,0,-0.0871,-0.0899,-0.0933,-0.0962,-0.0971,-0.0988,-0.1001,-0.0953,-0.0938,-0.0815,-0.0792,-0.0597,-0.0417,-0.0046,0.0214,0.0488,0.0591,0.0659,0.0663,0.0777,0.085,0.087,0.092,0.072,0.0722,0.0724,0.0725,0,-0.0916,-0.093,-0.0962,-0.1028,-0.106,-0.1088,-0.1094,-0.1095,-0.1024,-0.094,-0.0787,-0.0633,-0.0279,0.0064,0.0404,0.0569,0.0745,0.0705,0.0832,0.0934,0.0957,0.1049,0.0645,0.0742,0.074,0.0739,0.0738,0.0737,-0.0941,-0.0981,-0.103,-0.1088,-0.1132,-0.117,-0.1173,-0.1137,-0.1075,-0.0903,-0.0777,-0.0469,-0.0061,0.0443,0.0614,0.0952,0.0912,0.1056,0.1088,0.1098,0.1173,0.0799,0.0945,0.0945,0.0944,0.0944,0.0944,0,-0.097,-0.102,-0.1086,-0.1156,-0.1211,-0.1215,-0.1219,-0.1164,-0.1053,-0.0831,-0.0618,-0.0093,0.0329,0.0698,0.1143,0.1323,0.1347,0.1407,0.1438,0.1473,0.1159,0.1166,0.1358,0.1358,0.1357,0.1357,0.1357,0.1357,-0.0989,-0.1062,-0.1103,-0.1202,-0.1248,-0.1272,-0.126,-0.1122,-0.094,-0.0515,-0.0161,0.0107,0.0586,0.1223,0.1622,0.1658,0.1793,0.1779,0.1856,0.1633,0.1602,0.1573,0.1592,0.187,0.187,0.2159,0.2162,0.2164]}],[{"header":{"parameterUnit":"m.s-1","parameterCategory":2,"la1":30.2991,"la2":30.254,"lo1":-89.0895,"lo2":-89.0444,"dy":0.0017,"dx":0.0017,"nx":28,"ny":28,"refTime":"2025-04-12T21:00:00:Z","depth":"2","parameterNumber":2,"parameterNumberName":"U-component_of_CURRENTS"},"data":[0,0,0,0,0,0,0,0,0,0,0,0,0,0,0,0,0,0,0,0,0,0,0,0,0,0,0,0,0,0,0,0,0,0,0,0,0,0,0,0,0,0,0,0,0,0,0,0,0,0,0,0,0,0,0,0,0,0,-0.2495,-0.2495,0,-0.2553,-0.2554,-0.2554,-0.2522,-0.2521,-0.252,-0.2518,-0.256,-0.2563,-0.2565,0,0,0,0,0,0,0,0,0,0,0,0,0,-0.2387,-0.2389,-0.2494,-0.2495,-0.2496,-0.2553,-0.2554,-0.2554,-0.2523,-0.2521,-0.2519,-0.2518,-0.2559,-0.2562,-0.2565,0,0,0,0,0,0,0,0,0,0,0,0,0,-0.2437,-0.2389,-0.2494,-0.2488,-0.2489,-0.2553,-0.2554,-0.2555,-0.2523,-0.2521,-0.2519,-0.2517,-0.2558,-0.2562,-0.2566,-0.2632,0,0,-0.2577,-0.2579,0,0,0,0,0,0,0,0,-0.2434,-0.2441,-0.2488,-0.2489,-0.2489,-0.253,-0.2531,-0.258,-0.2524,-0.2508,-0.2518,-0.2516,-0.2551,-0.2555,-0.2569,-0.2634,-0.2636,-0.2577,-0.2579,-0.2581,-0.2582,0,0,0,0,0,0,0,-0.2431,-0.2438,-0.2516,-0.249,-0.249,-0.2494,-0.2498,-0.2541,-0.254,-0.2509,-0.2508,-0.2518,-0.2551,-0.2566,-0.257,-0.2636,-0.2577,-0.258,-0.2583,-0.2584,-0.2763,-0.2765,0,0,0,0,0,0,-0.2428,-0.2435,-0.2514,-0.2518,-0.2458,-0.2498,-0.2502,-0.2518,-0.2539,-0.2541,-0.2519,-0.2516,-0.256,-0.2566,-0.2571,-0.2636,-0.2581,-0.2585,-0.2587,-0.276,-0.2763,-0.2766,0,0,0,0,0,0,-0.2425,-0.2435,-0.2512,-0.2478,-0.2489,-0.2502,-0.2519,-0.252,-0.2529,-0.2548,-0.2548,-0.2526,-0.2559,-0.2566,-0.2625,-0.2638,-0.2586,-0.259,-0.2757,-0.2761,-0.2765,-0.2775,0,0,0,0,0,0,-0.2422,-0.2434,-0.2442,-0.2479,-0.2491,-0.2552,-0.2522,-0.2523,-0.2539,-0.2535,-0.2555,-0.2556,-0.2558,-0.262,-0.2629,-0.2642,-0.2592,-0.2754,-0.2759,-0.2763,-0.2772,-0.2779,-0.2785,0,0,0,0,0,-0.2418,-0.244,-0.2442,-0.2452,-0.2503,-0.2553,-0.256,-0.256,-0.2542,-0.2557,-0.258,-0.2555,-0.2655,-0.2626,-0.2635,-0.2649,-0.2752,-0.2758,-0.2763,-0.2769,-0.2778,-0.2785,0,0,0,0,0,0,-0.2396,-0.244,-0.2443,-0.2476,-0.2512,-0.2548,-0.2562,-0.2567,-0.2598,-0.2591,-0.2598,-0.2604,-0.2657,-0.267,-0.2636,-0.272,-0.2696,-0.2704,-0.2697,-0.2706,-0.2713,-0.2664,-0.2596,0,0,0,0,0,-0.2399,-0.2422,-0.2468,-0.2492,-0.2513,-0.254,-0.2558,-0.2566,-0.2599,-0.2607,-0.2628,-0.2657,-0.2694,-0.271,-0.2748,-0.2802,-0.275,-0.2819,-0.2825,-0.2831,-0.2802,-0.2721,-0.2715,-0.2785,-0.2785,-0.2784,0,0,-0.2395,-0.2423,-0.2434,-0.2489,-0.2513,-0.2546,-0.2544,-0.258,-0.2598,-0.2612,-0.2649,-0.2686,-0.2718,-0.2771,-0.2795,-0.2778,-0.2797,-0.2838,-0.2841,-0.2809,-0.2726,-0.2718,-0.2711,-0.2788,-0.2788,-0.2787,0,0,-0.24,-0.2428,-0.2448,-0.2484,-0.2531,-0.2554,-0.2565,-0.2616,-0.2625,-0.2686,-0.2693,-0.2738,-0.2806,-0.282,-0.2836,-0.291,-0.2838,-0.293,-0.2916,-0.2839,-0.283,-0.2822,-0.2782,-0.2769,-0.2927,-0.2927,-0.2927,0,-0.239,-0.2418,-0.2463,-0.2496,-0.2508,-0.2556,-0.2572,-0.2611,-0.2672,-0.2666,-0.2698,-0.2759,-0.282,-0.2829,-0.2881,-0.2917,-0.2864,-0.2876,-0.2839,-0.2829,-0.282,-0.2781,-0.2767,-0.2929,-0.2928,-0.2928,-0.2928,0,-0.2413,-0.2432,-0.2451,-0.2496,-0.2526,-0.2552,-0.2606,-0.2635,-0.266,-0.2679,-0.2705,-0.2783,-0.2797,-0.2851,-0.2906,-0.2882,-0.2865,-0.2853,-0.2798,-0.2812,-0.2773,-0.2758,-0.293,-0.293,-0.293,-0.2929,0,0,-0.2381,-0.2447,-0.245,-0.2453,-0.2517,-0.2541,-0.2575,-0.2595,-0.259,-0.2653,-0.2628,-0.2742,-0.2751,-0.2774,-0.2827,-0.2807,-0.2769,-0.2817,-0.2812,-0.2742,-0.2601,-0.2558,-0.2537,-0.2724,-0.272,-0.2718,-0.261,0,-0.2369,-0.2403,-0.2441,-0.2457,-0.2469,-0.2509,-0.2535,-0.2562,-0.2592,-0.2601,-0.2631,-0.2659,-0.2726,-0.2752,-0.2732,-0.2773,-0.2723,-0.2799,-0.2628,-0.2624,-0.2551,-0.2516,-0.235,-0.2235,-0.2595,-0.2593,-0.2591,0,-0.2357,-0.238,-0.2388,-0.2408,-0.2417,-0.244,-0.2441,-0.2475,-0.2496,-0.2516,-0.2503,-0.2538,-0.2558,-0.261,-0.2567,-0.2603,-0.2594,-0.2606,-0.26,-0.253,-0.2549,-0.2276,-0.2193,-0.2565,-0.2567,-0.2569,-0.2571,0,-0.2281,-0.2324,-0.2315,-0.233,-0.2384,-0.2378,-0.2401,-0.243,-0.2443,-0.2449,-0.2454,-0.2433,-0.2456,-0.2406,-0.2478,-0.25,-0.2412,-0.2431,-0.2354,-0.2353,-0.2163,-0.2149,-0.2326,-0.2326,-0.2326,-0.2326,-0.2327,0,-0.223,-0.2221,-0.2281,-0.2283,-0.2269,-0.2324,-0.2312,-0.2335,-0.2364,-0.2364,-0.2397,-0.2392,-0.2403,-0.2381,-0.2402,-0.2336,-0.2323,-0.2321,-0.2299,-0.2174,-0.2163,-0.2409,-0.242,-0.2322,-0.2323,-0.2324,-0.2325,0,-0.2137,-0.218,-0.2176,-0.2224,-0.2234,-0.2225,-0.2268,-0.2269,-0.2308,-0.2306,-0.2307,-0.2341,-0.231,-0.2307,-0.2268,-0.2245,-0.2196,-0.2165,-0.2049,-0.2014,-0.2207,-0.2221,-0.2034,-0.2031,-0.2028,-0.2026,-0.2024,0,-0.2087,-0.2079,-0.212,-0.2122,-0.2142,-0.2151,-0.2162,-0.2221,-0.2233,-0.2277,-0.2269,-0.2255,-0.2213,-0.2134,-0.2088,-0.201,-0.2109,-0.1826,-0.1837,-0.2167,-0.2165,-0.2184,-0.22,-0.161,-0.1605,-0.16,-0.1597,0,-0.1988,-0.2009,-0.2015,-0.2024,-0.2035,-0.2041,-0.2068,-0.2073,-0.2143,-0.2142,-0.2136,-0.2101,-0.2038,-0.1884,-0.1807,-0.1759,-0.1828,-0.174,-0.2043,-0.173,-0.1763,-0.1764,-0.1794,-0.1561,-0.1564,-0.1567,-0.1569,-0.157,-0.1905,-0.1888,-0.1907,-0.1899,-0.1918,-0.1914,-0.1878,-0.1926,-0.1913,-0.1887,-0.1953,-0.1838,-0.1811,-0.1592,-0.1515,-0.146,-0.159,-0.1522,-0.1535,-0.1552,-0.1543,-0.1571,-0.1333,-0.1335,-0.1337,-0.1339,-0.134,0,-0.1788,-0.1786,-0.1781,-0.1771,-0.1744,-0.1793,-0.1796,-0.1743,-0.1688,-0.1682,-0.1636,-0.143,-0.1312,-0.1298,-0.1148,-0.1124,-0.1122,-0.1084,-0.1078,-0.1114,-0.1146,-0.1118,-0.0794,-0.0793,-0.0791,-0.079,0,0,-0.1727,-0.168,-0.1678,-0.1592,-0.1586,-0.1501,-0.1473,-0.1418,-0.1381,-0.1256,-0.118,-0.1242,-0.1244,-0.1022,-0.097,-0.0854,-0.0977,-0.081,-0.1244,-0.1271,-0.1302,-0.1388,-0.1384,0,0,0,0,0]},{"header":{"parameterUnit":"m.s-1","parameterCategory":2,"la1":30.2991,"la2":30.254,"lo1":-89.0895,"lo2":-89.0444,"dy":0.0017,"dx":0.0017,"nx":28,"ny":28,"refTime":"2025-04-12T21:00:00:Z","depth":"2","parameterNumber":3,"parameterNumberName":"V-component_of_CURRENTS"},"data":[0,0,0,0,0,0,0,0,0,0,0,0,0,0,0,0,0,0,0,0,0,0,0,0,0,0,0,0,0,0,0,0,0,0,0,0,0,0,0,0,0,0,0,0,0,0,0,0,0,0,0,0,0,0,0,0,0,0,-0.041,-0.0409,0,-0.033,-0.0329,-0.0328,-0.0267,-0.0267,-0.0266,-0.0266,-0.0067,-0.0063,-0.0058,0,0,0,0,0,0,0,0,0,0,0,0,0,-0.043,-0.043,-0.041,-0.0409,-0.0409,-0.0331,-0.0329,-0.0328,-0.0267,-0.0267,-0.0266,-0.0266,-0.0069,-0.0063,-0.0057,0,0,0,0,0,0,0,0,0,0,0,0,0,-0.0392,-0.043,-0.041,-0.037,-0.0366,-0.0331,-0.0329,-0.0328,-0.0267,-0.0267,-0.0266,-0.0265,-0.0071,-0.0064,-0.0056,-0.0024,0,0,-0.0034,-0.0031,0,0,0,0,0,0,0,0,-0.0394,-0.0391,-0.0377,-0.0373,-0.0368,-0.0309,-0.0264,-0.0221,-0.0267,-0.0303,-0.0266,-0.0265,-0.0139,-0.0126,-0.0112,-0.0015,-0.0006,-0.0033,-0.0029,-0.0026,-0.0024,0,0,0,0,0,0,0,-0.0397,-0.0393,-0.0377,-0.0376,-0.0371,-0.0328,-0.0323,-0.0255,-0.0222,-0.03,-0.0296,-0.0289,-0.0135,-0.0119,-0.0106,-0.0003,-0.0034,-0.0027,-0.0023,-0.002,0.016,0.0161,0,0,0,0,0,0,-0.0415,-0.0397,-0.038,-0.0375,-0.0381,-0.0329,-0.0323,-0.0328,-0.0225,-0.021,-0.029,-0.0287,-0.0132,-0.0115,-0.0099,-0.0039,-0.0026,-0.0019,-0.0015,0.016,0.016,0.0161,0,0,0,0,0,0,-0.0416,-0.0415,-0.0383,-0.0384,-0.0377,-0.033,-0.0336,-0.0326,-0.0312,-0.0219,-0.0202,-0.0286,-0.0131,-0.0109,-0.0039,-0.0031,-0.0016,-0.0009,0.0159,0.016,0.016,0.0071,0,0,0,0,0,0,-0.0417,-0.0416,-0.0424,-0.0386,-0.0378,-0.0374,-0.0336,-0.0325,-0.031,-0.0305,-0.021,-0.0191,-0.0129,-0.0051,-0.0032,-0.0021,-0.0003,0.0159,0.016,0.016,0.0074,0.0069,0.0064,0,0,0,0,0,-0.0418,-0.0441,-0.0425,-0.0423,-0.0392,-0.0375,-0.0367,-0.0329,-0.0311,-0.0312,-0.0241,-0.0194,-0.0033,-0.0045,-0.0023,-0.0009,0.0159,0.0159,0.016,0.0076,0.007,0.0064,0,0,0,0,0,0,-0.0453,-0.0435,-0.0418,-0.0433,-0.0409,-0.0365,-0.0363,-0.0338,-0.0286,-0.0277,-0.0188,-0.0164,-0.0101,-0.0043,-0.0059,0.0045,0.0071,0.0076,-0.0001,-0.0006,-0.001,-0.0034,0.0003,0,0,0,0,0,-0.0466,-0.0477,-0.0447,-0.0457,-0.045,-0.0407,-0.0395,-0.0373,-0.0324,-0.0302,-0.0234,-0.0155,-0.0081,-0.0036,0.0031,0.0089,0.0134,0.0113,0.0108,0.0104,0.01,0.0169,0.0169,0.0163,0.0163,0.0163,0,0,-0.0481,-0.0473,-0.0477,-0.0465,-0.0441,-0.0439,-0.0398,-0.0391,-0.0379,-0.0285,-0.0244,-0.0173,-0.0071,-0.0009,0.0026,0.0043,0.0127,0.0105,0.01,0.01,0.017,0.017,0.0171,0.0164,0.0164,0.0164,0,0,-0.0521,-0.051,-0.0533,-0.052,-0.0499,-0.0469,-0.0472,-0.0434,-0.0407,-0.0363,-0.0287,-0.0213,-0.0112,-0.0033,0.0021,0.0034,0.0094,0.0054,0.0022,0.0088,0.0088,0.0089,0.0129,0.0135,0.0059,0.0059,0.0059,0,-0.0538,-0.056,-0.0535,-0.0551,-0.054,-0.0489,-0.0501,-0.0469,-0.041,-0.0378,-0.0363,-0.02,-0.0121,-0.002,-0.0018,0.0024,0.0057,0.0031,0.0079,0.0082,0.0084,0.0126,0.0133,0.0054,0.0055,0.0055,0.0056,0,-0.0593,-0.0605,-0.0617,-0.0614,-0.0601,-0.0604,-0.0559,-0.0534,-0.0493,-0.0448,-0.0361,-0.0255,-0.0154,-0.0117,-0.0062,0.0007,0.0021,0.0056,0.0085,0.0079,0.0123,0.0132,0.0048,0.005,0.0051,0.0052,0,0,-0.0642,-0.0653,-0.0656,-0.0659,-0.0634,-0.0626,-0.0605,-0.0558,-0.0529,-0.0464,-0.0414,-0.0289,-0.0233,-0.0169,-0.0084,-0.0023,0.0021,0.0014,0.0019,0.0038,0.0143,0.0168,0.0181,0.0057,0.0059,0.006,0.0159,0,-0.0685,-0.0729,-0.0717,-0.0734,-0.0744,-0.069,-0.067,-0.062,-0.0559,-0.0499,-0.0385,-0.0308,-0.0251,-0.02,-0.0132,-0.0008,0.0043,-0.001,0.016,0.0165,0.0176,0.0192,0.0158,0.0245,0.0168,0.017,0.0171,0,-0.0738,-0.0757,-0.0794,-0.0782,-0.078,-0.0779,-0.072,-0.0696,-0.0598,-0.055,-0.0457,-0.0373,-0.0256,-0.022,-0.0035,-0.0076,0.0016,0.0101,0.0108,0.017,0.0208,0.0246,0.0265,0.0187,0.0185,0.0184,0.0183,0,-0.0779,-0.0802,-0.0829,-0.0829,-0.0814,-0.0808,-0.0787,-0.0711,-0.068,-0.058,-0.054,-0.0401,-0.032,-0.0191,-0.0021,-0.003,0.017,0.0188,0.0296,0.0298,0.0324,0.0326,0.0302,0.0302,0.0301,0.0301,0.0301,0,-0.0825,-0.0844,-0.0852,-0.0869,-0.0884,-0.0855,-0.0843,-0.0799,-0.0727,-0.0684,-0.0572,-0.0496,-0.0312,-0.0172,-0.0036,0.016,0.0163,0.0292,0.0333,0.0291,0.0289,0.0287,0.0284,0.0305,0.0304,0.0303,0.0303,0,-0.0867,-0.0875,-0.0906,-0.0908,-0.091,-0.0921,-0.09,-0.0884,-0.0811,-0.075,-0.0724,-0.056,-0.0376,-0.0189,0.004,0.0152,0.0331,0.0396,0.0321,0.0351,0.0411,0.0402,0.0518,0.052,0.0522,0.0523,0.0524,0,-0.0892,-0.0916,-0.0944,-0.0968,-0.0975,-0.0984,-0.099,-0.0935,-0.0908,-0.0777,-0.0746,-0.0566,-0.0412,-0.0077,0.0144,0.0383,0.0389,0.048,0.0468,0.0409,0.0437,0.0425,0.0415,0.046,0.0461,0.0461,0.0461,0,-0.0933,-0.0944,-0.0971,-0.1027,-0.1051,-0.1066,-0.1063,-0.1054,-0.0973,-0.089,-0.0747,-0.0617,-0.0307,-0.004,0.0252,0.0387,0.0437,0.0496,0.0482,0.0407,0.0362,0.0386,0.0377,0.0465,0.0465,0.0464,0.0464,0.0464,-0.0954,-0.0989,-0.103,-0.1077,-0.1111,-0.1134,-0.1132,-0.1091,-0.1027,-0.0875,-0.0758,-0.0514,-0.0299,0.0144,0.0333,0.051,0.051,0.0554,0.055,0.0546,0.0518,0.0478,0.0596,0.0597,0.0597,0.0597,0.0598,0,-0.0979,-0.1022,-0.1076,-0.113,-0.1171,-0.1174,-0.1165,-0.1118,-0.1021,-0.085,-0.0674,-0.0386,-0.0093,0.0143,0.0423,0.0577,0.0555,0.06,0.0535,0.053,0.0526,0.0495,0.0569,0.0569,0.057,0.057,0,0,-0.0995,-0.1055,-0.1088,-0.1163,-0.12,-0.1217,-0.1205,-0.1097,-0.0957,-0.0757,-0.0558,-0.033,-0.0057,0.0134,0.0311,0.0453,0.0453,0.0466,0.0471,0.0367,0.0362,0.0482,0.0427,0,0,0,0,0]}],[{"header":{"parameterUnit":"m.s-1","parameterCategory":2,"la1":30.2991,"la2":30.254,"lo1":-89.0895,"lo2":-89.0444,"dy":0.0017,"dx":0.0017,"nx":28,"ny":28,"refTime":"2025-04-12T21:00:00:Z","depth":"4","parameterNumber":2,"parameterNumberName":"U-component_of_CURRENTS"},"data":[0,0,0,0,0,0,0,0,0,0,0,0,0,0,0,0,0,0,0,0,0,0,0,0,0,0,0,0,0,0,0,0,0,0,0,0,0,0,0,0,0,0,0,0,0,0,0,0,0,0,0,0,0,0,0,0,0,0,-0.1749,-0.175,0,-0.1794,-0.1794,-0.1794,-0.1802,-0.1802,-0.1803,-0.1803,-0.1724,-0.1722,-0.1719,0,0,0,0,0,0,0,0,0,0,0,0,0,-0.1628,-0.163,-0.1749,-0.175,-0.1751,-0.1794,-0.1794,-0.1794,-0.1802,-0.1802,-0.1803,-0.1803,-0.1725,-0.1722,-0.1719,0,0,0,0,0,0,0,0,0,0,0,0,0,-0.1671,-0.1631,-0.1749,-0.1766,-0.1768,-0.1794,-0.1794,-0.1794,-0.1802,-0.1802,-0.1803,-0.1803,-0.1726,-0.1722,-0.1719,-0.1689,0,0,-0.1708,-0.1706,0,0,0,0,0,0,0,0,-0.1669,-0.1675,-0.1762,-0.1764,-0.1767,-0.1799,-0.1723,-0.1755,-0.1802,-0.1782,-0.1803,-0.1803,-0.1742,-0.1737,-0.1736,-0.1685,-0.1682,-0.1708,-0.1705,-0.1704,-0.1703,0,0,0,0,0,0,0,-0.1666,-0.1673,-0.176,-0.1763,-0.1767,-0.1757,-0.1763,-0.1729,-0.1751,-0.1784,-0.1786,-0.1802,-0.1741,-0.174,-0.1734,-0.1681,-0.1708,-0.1705,-0.1702,-0.1701,-0.1709,-0.1711,0,0,0,0,0,0,-0.1676,-0.167,-0.1758,-0.1762,-0.1726,-0.176,-0.1766,-0.1783,-0.1754,-0.1754,-0.1801,-0.1802,-0.1746,-0.1738,-0.1731,-0.1755,-0.1704,-0.1701,-0.1699,-0.1707,-0.1709,-0.1712,0,0,0,0,0,0,-0.1674,-0.1684,-0.1757,-0.1722,-0.1732,-0.1762,-0.178,-0.1784,-0.1816,-0.1771,-0.1766,-0.1836,-0.1746,-0.1736,-0.1719,-0.1749,-0.1699,-0.1696,-0.1704,-0.1708,-0.1711,-0.1762,0,0,0,0,0,0,-0.167,-0.1682,-0.1707,-0.1723,-0.1735,-0.1796,-0.1781,-0.1784,-0.1827,-0.1829,-0.1797,-0.1789,-0.1745,-0.1725,-0.1716,-0.1743,-0.1693,-0.1701,-0.1706,-0.171,-0.1757,-0.1767,-0.1775,0,0,0,0,0,-0.1665,-0.1696,-0.1708,-0.172,-0.1765,-0.1798,-0.1802,-0.1819,-0.1828,-0.1848,-0.1821,-0.1792,-0.1748,-0.1723,-0.1712,-0.1739,-0.1699,-0.1704,-0.1709,-0.1753,-0.1765,-0.1774,0,0,0,0,0,0,-0.1658,-0.1701,-0.1714,-0.1758,-0.1789,-0.1802,-0.1831,-0.1843,-0.1841,-0.1846,-0.1796,-0.1785,-0.1787,-0.1764,-0.1738,-0.1763,-0.1729,-0.1732,-0.1766,-0.1777,-0.1785,-0.1769,-0.169,0,0,0,0,0,-0.1669,-0.1704,-0.1739,-0.1777,-0.1799,-0.1822,-0.1844,-0.1859,-0.1859,-0.1862,-0.1836,-0.1817,-0.1797,-0.1787,-0.1765,-0.1762,-0.1732,-0.1786,-0.1794,-0.1802,-0.1786,-0.1758,-0.1761,-0.1729,-0.1729,-0.1729,0,0,-0.1678,-0.1707,-0.1729,-0.1779,-0.1804,-0.1834,-0.1835,-0.1883,-0.1899,-0.1849,-0.1859,-0.184,-0.1805,-0.1803,-0.1805,-0.1787,-0.1805,-0.1808,-0.1814,-0.1794,-0.1763,-0.1766,-0.1768,-0.1733,-0.1732,-0.1731,0,0,-0.17,-0.1742,-0.1773,-0.1805,-0.1859,-0.1871,-0.1896,-0.1926,-0.1936,-0.1941,-0.1916,-0.1902,-0.1885,-0.1851,-0.1834,-0.1879,-0.1851,-0.1913,-0.1935,-0.1908,-0.1909,-0.191,-0.1907,-0.1906,-0.1918,-0.1918,-0.1918,0,-0.171,-0.1747,-0.1788,-0.1824,-0.1847,-0.1892,-0.1919,-0.194,-0.1957,-0.1951,-0.1956,-0.1925,-0.1894,-0.1872,-0.1897,-0.1891,-0.1892,-0.189,-0.1915,-0.1914,-0.1914,-0.191,-0.1909,-0.1921,-0.192,-0.192,-0.192,0,-0.174,-0.178,-0.1806,-0.1857,-0.189,-0.1928,-0.1962,-0.199,-0.2008,-0.2008,-0.2006,-0.1967,-0.1942,-0.1956,-0.1933,-0.1936,-0.1946,-0.1924,-0.1876,-0.1919,-0.1915,-0.1912,-0.1925,-0.1924,-0.1923,-0.1922,0,0,-0.1721,-0.1807,-0.1817,-0.1839,-0.1909,-0.1932,-0.1972,-0.1995,-0.2011,-0.2026,-0.2024,-0.1999,-0.1993,-0.1975,-0.1963,-0.1948,-0.1954,-0.1952,-0.1949,-0.193,-0.1931,-0.1794,-0.1778,-0.1949,-0.1949,-0.1948,-0.1939,0,-0.1726,-0.1781,-0.1824,-0.1872,-0.1897,-0.1948,-0.1973,-0.2005,-0.2024,-0.2038,-0.2017,-0.2012,-0.2001,-0.2001,-0.1985,-0.1961,-0.1947,-0.1959,-0.1909,-0.1907,-0.1761,-0.1769,-0.1946,-0.1937,-0.1937,-0.1936,-0.1936,0,-0.172,-0.176,-0.1805,-0.1862,-0.188,-0.192,-0.1961,-0.1991,-0.2024,-0.2036,-0.2037,-0.2034,-0.202,-0.2008,-0.1967,-0.199,-0.1964,-0.1942,-0.1941,-0.1781,-0.1763,-0.1881,-0.1931,-0.1931,-0.1932,-0.1932,-0.1932,0,-0.1652,-0.1733,-0.1763,-0.1789,-0.1871,-0.1898,-0.1941,-0.1986,-0.2003,-0.2042,-0.2052,-0.2044,-0.2034,-0.2008,-0.1963,-0.1982,-0.1916,-0.1924,-0.1773,-0.1766,-0.1869,-0.1868,-0.1877,-0.1877,-0.1877,-0.1877,-0.1877,0,-0.1606,-0.1635,-0.1744,-0.1763,-0.18,-0.1871,-0.1908,-0.1948,-0.2001,-0.2008,-0.2049,-0.2035,-0.2035,-0.1999,-0.1971,-0.185,-0.1912,-0.176,-0.1737,-0.19,-0.1902,-0.1869,-0.1868,-0.1877,-0.1877,-0.1877,-0.1877,0,-0.1516,-0.159,-0.1635,-0.1737,-0.1771,-0.18,-0.1894,-0.1915,-0.1978,-0.1993,-0.2006,-0.203,-0.1977,-0.1952,-0.1898,-0.1825,-0.1746,-0.1686,-0.1873,-0.1864,-0.1628,-0.1631,-0.1533,-0.1527,-0.1523,-0.1519,-0.1516,0,-0.1468,-0.1486,-0.1606,-0.1641,-0.1695,-0.176,-0.18,-0.1888,-0.1909,-0.1963,-0.1953,-0.1935,-0.1928,-0.1735,-0.174,-0.1652,-0.162,-0.1587,-0.1593,-0.1597,-0.1585,-0.1595,-0.1604,-0.1509,-0.1508,-0.1506,-0.1505,0,-0.1375,-0.1438,-0.1483,-0.1557,-0.1618,-0.1665,-0.1733,-0.1733,-0.1818,-0.1895,-0.1825,-0.1768,-0.1698,-0.1635,-0.1556,-0.1503,-0.1616,-0.154,-0.155,-0.1556,-0.1567,-0.1562,-0.1576,-0.149,-0.1492,-0.1493,-0.1494,0,-0.131,-0.1325,-0.1402,-0.1448,-0.1525,-0.1542,-0.1592,-0.1606,-0.163,-0.17,-0.1673,-0.1652,-0.1683,-0.1556,-0.1496,-0.1413,-0.1398,-0.1356,-0.1375,-0.1393,-0.1343,-0.1337,-0.1148,0,0,0,0,0,-0.1234,-0.1242,-0.1285,-0.1334,-0.1407,-0.1442,-0.1533,-0.1586,-0.1673,-0.1577,-0.1616,-0.1542,-0.143,-0.143,-0.1308,-0.1437,-0.1411,-0.1292,-0.1377,-0.1403,-0.1421,-0.1371,0,0,0,0,0,0,-0.1188,-0.1225,-0.1242,-0.1226,-0.1235,-0.1291,-0.134,-0.1403,-0.1359,-0.1445,-0.1386,-0.1444,-0.1355,-0.1457,-0.1272,-0.1269,-0.129,-0.1293,-0.1289,-0.1393,-0.1409,-0.1424,-0.1379,0,0,0,0,0]},{"header":{"parameterUnit":"m.s-1","parameterCategory":2,"la1":30.2991,"la2":30.254,"lo1":-89.0895,"lo2":-89.0444,"dy":0.0017,"dx":0.0017,"nx":28,"ny":28,"refTime":"2025-04-12T21:00:00:Z","depth":"4","parameterNumber":3,"parameterNumberName":"V-component_of_CURRENTS"},"data":[0,0,0,0,0,0,0,0,0,0,0,0,0,0,0,0,0,0,0,0,0,0,0,0,0,0,0,0,0,0,0,0,0,0,0,0,0,0,0,0,0,0,0,0,0,0,0,0,0,0,0,0,0,0,0,0,0,0,-0.0343,-0.0343,0,-0.0304,-0.0304,-0.0303,-0.0271,-0.0271,-0.027,-0.027,-0.0224,-0.0223,-0.0222,0,0,0,0,0,0,0,0,0,0,0,0,0,-0.0351,-0.0352,-0.0343,-0.0343,-0.0342,-0.0304,-0.0304,-0.0303,-0.0271,-0.0271,-0.027,-0.027,-0.0224,-0.0223,-0.0222,0,0,0,0,0,0,0,0,0,0,0,0,0,-0.0334,-0.0352,-0.0343,-0.0321,-0.0319,-0.0304,-0.0304,-0.0303,-0.0271,-0.027,-0.027,-0.0269,-0.0225,-0.0224,-0.0222,-0.0225,0,0,-0.0218,-0.0218,0,0,0,0,0,0,0,0,-0.0335,-0.0334,-0.0325,-0.0323,-0.032,-0.0292,-0.029,-0.0277,-0.0271,-0.0289,-0.027,-0.0269,-0.0246,-0.0243,-0.0238,-0.0223,-0.0221,-0.0218,-0.0217,-0.0217,-0.0216,0,0,0,0,0,0,0,-0.0336,-0.0335,-0.0328,-0.0324,-0.0321,-0.03,-0.0297,-0.0287,-0.0272,-0.0288,-0.0285,-0.0281,-0.0245,-0.0239,-0.0236,-0.022,-0.0218,-0.0217,-0.0216,-0.0216,-0.0196,-0.0196,0,0,0,0,0,0,-0.0343,-0.0337,-0.0329,-0.0327,-0.0326,-0.0301,-0.0298,-0.0301,-0.0272,-0.0267,-0.0281,-0.0279,-0.0241,-0.0238,-0.0235,-0.0228,-0.0217,-0.0216,-0.0215,-0.0195,-0.0196,-0.0196,0,0,0,0,0,0,-0.0344,-0.0344,-0.0331,-0.033,-0.0327,-0.0301,-0.0306,-0.0301,-0.0299,-0.0267,-0.0261,-0.0285,-0.0241,-0.0236,-0.0225,-0.0227,-0.0215,-0.0214,-0.0195,-0.0195,-0.0196,-0.0221,0,0,0,0,0,0,-0.0345,-0.0344,-0.0353,-0.0331,-0.0327,-0.033,-0.0306,-0.0301,-0.0297,-0.0294,-0.0268,-0.0263,-0.024,-0.0228,-0.0224,-0.0225,-0.0213,-0.0195,-0.0195,-0.0196,-0.022,-0.0222,-0.0224,0,0,0,0,0,-0.0345,-0.0362,-0.0354,-0.0353,-0.034,-0.0331,-0.0327,-0.0307,-0.0298,-0.0302,-0.0279,-0.0264,-0.0228,-0.0227,-0.0223,-0.0223,-0.0194,-0.0195,-0.0196,-0.0219,-0.0222,-0.0224,0,0,0,0,0,0,-0.0371,-0.036,-0.0351,-0.0364,-0.0351,-0.0325,-0.0329,-0.0315,-0.0301,-0.0301,-0.0268,-0.0262,-0.0252,-0.0238,-0.0237,-0.0219,-0.0209,-0.0208,-0.0228,-0.023,-0.0232,-0.0229,-0.0212,0,0,0,0,0,-0.0381,-0.0391,-0.0372,-0.0383,-0.0379,-0.0356,-0.0352,-0.034,-0.0322,-0.0316,-0.0295,-0.0273,-0.0251,-0.0242,-0.0225,-0.0219,-0.0176,-0.0216,-0.0218,-0.022,-0.0215,-0.0135,-0.0129,-0.0198,-0.0198,-0.0198,0,0,-0.0393,-0.0389,-0.0394,-0.0389,-0.0378,-0.0379,-0.0353,-0.0353,-0.035,-0.0314,-0.0308,-0.0284,-0.0253,-0.0239,-0.0234,-0.0227,-0.0182,-0.0221,-0.0222,-0.0216,-0.0135,-0.0127,-0.0121,-0.0198,-0.0198,-0.0198,0,0,-0.0423,-0.042,-0.0438,-0.0432,-0.0423,-0.0405,-0.0408,-0.0389,-0.0377,-0.0371,-0.0337,-0.031,-0.0293,-0.0257,-0.0238,-0.0245,-0.0198,-0.0247,-0.0251,-0.0174,-0.0167,-0.016,-0.0113,-0.0102,-0.0245,-0.0245,-0.0245,0,-0.0438,-0.0457,-0.0441,-0.0455,-0.0451,-0.0419,-0.0432,-0.0416,-0.0395,-0.0375,-0.0377,-0.0309,-0.0296,-0.0244,-0.0253,-0.0248,-0.0204,-0.0243,-0.0175,-0.0167,-0.016,-0.0113,-0.01,-0.0247,-0.0246,-0.0246,-0.0246,0,-0.0478,-0.0492,-0.0502,-0.0506,-0.05,-0.0507,-0.048,-0.0469,-0.045,-0.0421,-0.0375,-0.0338,-0.0292,-0.0286,-0.0278,-0.0218,-0.0205,-0.0187,-0.0165,-0.0154,-0.0106,-0.0092,-0.0248,-0.0248,-0.0248,-0.0247,0,0,-0.0508,-0.0527,-0.0531,-0.0538,-0.0528,-0.0525,-0.0515,-0.0484,-0.0461,-0.0428,-0.0384,-0.0347,-0.0309,-0.0286,-0.0253,-0.0194,-0.0126,-0.0178,-0.0173,-0.0126,0.0032,-0.0009,0.0002,-0.0087,-0.0084,-0.0082,0.004,0,-0.0541,-0.058,-0.0575,-0.0597,-0.0608,-0.0575,-0.0564,-0.053,-0.0489,-0.0441,-0.0369,-0.0328,-0.0311,-0.0289,-0.0224,-0.0151,-0.0088,-0.0162,0.001,0.0015,-0.0017,0.0018,-0.0074,0.005,0.0053,0.0056,0.0057,0,-0.0577,-0.0597,-0.0635,-0.0634,-0.0634,-0.0641,-0.0599,-0.0585,-0.0504,-0.0469,-0.0391,-0.0334,-0.0248,-0.0239,-0.0078,-0.0123,-0.0053,0.0009,0.0016,-0.0001,0.0,0.0041,0.0083,0.0081,0.0079,0.0077,0.0076,0,-0.0601,-0.0631,-0.0661,-0.0666,-0.0664,-0.0666,-0.0656,-0.0597,-0.0571,-0.0483,-0.0444,-0.0321,-0.0265,-0.0141,-0.0037,-0.0047,0.0143,0.0149,0.0188,0.0185,0.0197,0.0189,0.0276,0.0276,0.0276,0.0276,0.0275,0,-0.0629,-0.0653,-0.068,-0.0698,-0.072,-0.0704,-0.0698,-0.0665,-0.06,-0.0556,-0.0463,-0.0392,-0.0236,-0.0115,-0.0015,0.0123,0.0168,0.0198,0.0224,0.0179,0.0168,0.0206,0.0197,0.028,0.0279,0.0278,0.0277,0,-0.0649,-0.0671,-0.0707,-0.0729,-0.0739,-0.0755,-0.0747,-0.0728,-0.0668,-0.0604,-0.0578,-0.0433,-0.0282,-0.0128,0.0068,0.0136,0.0276,0.0314,0.024,0.0258,0.0261,0.0249,0.038,0.038,0.038,0.0379,0.0379,0,-0.066,-0.0686,-0.0739,-0.0768,-0.0787,-0.0807,-0.0815,-0.0772,-0.0739,-0.0623,-0.0584,-0.0437,-0.0331,-0.0069,0.0072,0.0276,0.0293,0.0358,0.0322,0.0265,0.0278,0.0265,0.0253,0.0379,0.0379,0.0379,0.0379,0,-0.0677,-0.0706,-0.0738,-0.0803,-0.0837,-0.0854,-0.0856,-0.0834,-0.0762,-0.0713,-0.0566,-0.0427,-0.0258,-0.0071,0.0079,0.0223,0.0313,0.0356,0.0358,0.0325,0.0265,0.0275,0.0264,0.0378,0.0378,0.0378,0.0378,0,-0.0686,-0.0718,-0.0772,-0.0819,-0.0868,-0.0879,-0.0878,-0.0822,-0.0778,-0.0645,-0.06,-0.0412,-0.0298,-0.0097,0.0046,0.0175,0.0202,0.0234,0.0242,0.0244,0.0154,0.0055,0.014,0,0,0,0,0,-0.0685,-0.0724,-0.0779,-0.0827,-0.0873,-0.0895,-0.0889,-0.0869,-0.0804,-0.0704,-0.0644,-0.0484,-0.0255,-0.0146,-0.0022,0.0019,0.0202,0.0164,0.0237,0.0375,0.0375,0.0287,0,0,0,0,0,0,-0.0688,-0.0746,-0.0775,-0.0819,-0.0851,-0.0886,-0.0885,-0.0845,-0.077,-0.0692,-0.0563,-0.0476,-0.0251,-0.0325,-0.0025,0.0014,0.0072,0.028,0.0282,0.0374,0.0375,0.0376,0.0285,0,0,0,0,0]}]]